Regional Weather Roundup
Issued by NWS

Home | Current Version | Previous Version | Text Only | Print | Product List | Glossary Off
Versions: 1 2 3 4 5 6 7 8 9 10 11 12 13 14 15 16 17 18 19 20 21 22 23 24 25 26 27 28 29 30 31 32 33 34 35 36 37 38 39 40 41 42 43 44 45 46 47 48 49 50

000
ASUS43 KFSD 311802
RWRSD

WEATHER ROUNDUP FOR SOUTH DAKOTA
NATIONAL WEATHER SERVICE SIOUX FALLS SD
100 PM CDT FRI JUL 31 2015

NOTE: "FAIR" INDICATES FEW OR NO CLOUDS BELOW 12,000 FEET WITH NO
SIGNIFICANT WEATHER AND/OR OBSTRUCTIONS TO VISIBILITY.


SDZ001>005-009-010-012>017-311900-
NORTHWEST AND NORTH CENTRAL SOUTH DAKOTA

CITY           SKY/WX    TMP DP  RH WIND       PRES   REMARKS
BUFFALO          N/A     86  41  20 E9        30.14F
FAITH            N/A     87  41  19 N7        30.18F
MOBRIDGE       SUNNY     85  54  34 SW6       30.12F
$$

SDZ012>016-024>037-041>051-057-063-072>074-311900-
SOUTHWEST AND SOUTH CENTRAL SOUTH DAKOTA

CITY           SKY/WX    TMP DP  RH WIND       PRES   REMARKS
RAPID CTY ARPT SUNNY     82  55  39 NE6       30.23F
PIERRE         SUNNY     84  53  34 SE5       30.14F
CUSTER         MOSUNNY   80  46  30 E12       30.35F
ELLSWORTH AFB  SUNNY     83  51  32 NE7       30.22F
PHILIP         SUNNY     84  59  42 VRB3      30.16F
PINE RIDGE     SUNNY     89  53  29 VRB5      30.21F
WINNER         FAIR      89  57  33 VRB3      30.15F
$$

SDZ004>011-016>023-039-040-311900-
NORTHEAST SOUTH DAKOTA

CITY           SKY/WX    TMP DP  RH WIND       PRES   REMARKS
ABERDEEN       SUNNY     82  52  35 S6        30.12F
WATERTOWN      SUNNY     80  52  37 NW5       30.15F
BROOKINGS      SUNNY     79  50  36 N7        30.16F
SISSETON         N/A     80  54  40 N10       30.11F
$$

SDZ017-020-022-023-036>040-048>070-311900-
SOUTHEAST SOUTH DAKOTA

CITY           SKY/WX    TMP DP  RH WIND       PRES   REMARKS
SIOUX FALLS    SUNNY     83  57  41 N7        30.15F
HURON          SUNNY     82  54  37 SE7       30.13F
CHAMBERLAIN    SUNNY     82  58  44 SE7       30.14F
MITCHELL       SUNNY     83  58  42 E9        30.14F
YANKTON        SUNNY     82  70  65 E8        30.11F
$$

ABBREVIATIONS USED IN REMARKS
   TC - TEMPERATURE IN CELSIUS
  WCI - WIND CHILL INDEX
   HX - HEAT INDEX
  VSB - VISIBILITY




USA.gov is the U.S. government's official web portal to all federal, state and local government web resources and services.